EHI
0 0 0 0 0 0 0 0 0 0 0 1 1 1 1 1 1 0 1 6 16 26 30 36 43 46 47 48 48 47 44 39 34 33 31 27 22 17 14 11 8 6 4 4 4 2 1 1 1
0 0 0 0 0 0 0 0 0 0 0 1 2 2 1 1 1 1 2 10 23 30 30 33 42 46 46 46 46 45 42 39 35 33 30 27 22 18 14 12 9 7 5 4 3 1 0 1 1
0 0 0 0 0 0 0 0 0 0 0 1 2 2 2 2 2 1 5 17 29 31 26 30 41 47 45 43 42 40 38 37 35 32 29 26 22 18 14 12 11 9 6 5 3 2 1 1 2
0 0 0 0 0 0 0 0 1 1 1 1 2 3 3 3 3 4 9 20 29 27 22 28 41 48 46 44 41 37 34 35 35 32 29 25 21 17 13 12 10 9 8 6 5 4 2 1 1
0 0 0 0 0 0 0 1 2 2 2 2 2 3 3 4 4 7 13 20 26 27 23 28 41 49 48 46 43 38 34 33 33 31 27 24 20 16 13 11 9 8 9 8 5 4 2 1 0
0 0 0 0 0 0 0 1 2 2 1 1 1 2 3 4 4 9 15 20 24 27 27 29 38 45 47 47 44 39 35 33 32 28 25 22 19 15 12 10 8 8 10 8 4 2 2 1 1
0 0 0 0 0 0 0 0 1 1 0 1 1 2 3 3 6 12 19 21 21 25 27 28 31 36 40 42 41 38 34 32 30 26 24 21 17 13 10 9 9 8 8 6 2 1 3 3 2
0 0 0 0 0 0 0 0 0 0 1 1 2 3 5 10 16 24 26 24 21 21 24 25 27 30 33 35 35 33 31 29 26 24 22 19 14 10 8 7 7 7 6 4 2 2 3 3 2
0 0 0 0 0 0 0 0 0 1 2 2 2 5 12 24 33 36 35 28 23 21 23 25 27 28 30 30 30 28 26 25 22 21 20 17 12 8 7 6 6 7 6 4 4 4 4 2 1
0 0 0 0 0 0 0 0 0 2 4 4 5 12 26 40 44 43 39 31 25 24 24 25 26 27 27 28 27 25 23 21 19 17 17 14 10 8 7 6 6 5 5 5 6 6 5 3 1
0 0 0 0 0 0 0 0 1 3 4 6 11 22 38 46 46 43 37 31 27 25 24 23 23 23 24 24 24 24 22 18 14 13 13 12 10 9 8 7 5 4 4 5 6 6 5 3 1
0 0 0 0 0 1 1 1 1 2 5 9 17 29 40 43 41 37 32 28 26 23 22 22 22 22 22 21 20 21 21 17 13 10 11 10 9 8 7 6 5 5 5 6 6 6 4 2 0
0 0 0 0 0 1 1 1 0 1 5 12 21 29 35 37 35 30 27 25 24 21 19 21 22 21 22 21 18 17 17 16 13 11 9 9 7 6 4 4 4 5 6 6 6 5 4 1 0
0 0 0 0 0 0 0 0 0 2 8 15 21 24 29 34 33 29 27 26 24 22 20 21 22 22 22 21 18 16 15 14 13 11 8 6 5 4 2 1 2 4 4 5 4 4 3 1 0
0 0 0 0 0 0 0 0 1 5 12 16 17 20 25 31 33 32 29 28 26 24 23 24 23 21 21 20 19 16 14 12 11 10 7 5 3 2 1 1 2 3 3 3 3 2 2 0 0
0 0 0 0 0 0 0 1 2 7 13 16 16 18 23 27 30 30 27 25 24 24 24 25 24 21 18 17 17 15 12 11 10 9 6 4 3 1 1 1 2 3 3 3 3 3 2 1 1
0 0 0 0 0 0 0 1 3 7 11 14 14 18 22 24 25 25 23 21 20 21 21 23 22 20 16 15 14 13 11 10 10 9 7 4 3 2 1 1 2 3 3 3 3 3 3 3 2
0 0 0 0 0 0 0 1 4 7 9 12 14 16 18 20 21 22 22 21 19 19 19 20 20 20 18 17 16 13 10 10 10 9 8 5 5 4 2 1 2 3 3 3 3 3 3 3 3
0 0 0 0 0 0 0 1 4 5 7 11 13 13 13 14 17 20 22 22 20 19 20 21 21 21 20 21 20 15 11 10 10 10 9 7 6 6 4 2 3 3 3 3 3 3 3 3 3
0 0 0 0 0 0 0 0 2 3 5 9 11 11 10 11 14 18 22 23 21 20 22 24 24 22 21 22 21 17 12 10 9 9 8 7 6 5 5 4 3 3 3 3 3 3 3 3 3
0 0 0 0 0 0 0 0 0 1 3 6 7 8 9 11 13 17 21 21 19 19 22 24 23 21 20 19 19 16 12 9 7 6 6 6 5 5 5 4 4 3 3 3 3 3 3 3 2
0 0 0 0 0 0 0 0 0 1 2 4 4 5 8 11 13 17 18 17 15 17 19 20 19 18 17 16 16 14 11 8 6 5 4 4 3 3 3 3 3 3 3 3 3 3 3 3 3
0 0 0 0 0 0 0 0 0 0 1 2 2 4 9 13 15 16 17 14 13 14 16 16 15 15 14 13 12 11 9 7 6 6 5 2 1 1 1 1 1 1 2 2 2 2 2 2 2
0 0 0 0 0 0 0 0 0 0 0 1 1 3 9 15 16 16 15 13 12 13 14 14 14 14 12 10 9 8 7 6 6 6 5 3 1 0 0 0 0 0 1 1 1 1 1 1 1
0 0 0 0 0 0 0 0 0 0 0 0 1 4 9 13 14 13 12 11 11 12 13 13 13 12 10 8 6 5 4 4 5 5 4 3 2 1 0 0 0 0 0 0 0 0 0 0 0
0 0 0 0 0 0 0 0 0 0 0 0 1 4 8 10 10 9 9 10 11 11 12 12 12 11 9 7 5 3 2 2 3 2 1 1 2 1 1 1 1 1 1 0 0 0 0 0 0
0 0 0 0 0 0 0 0 0 0 0 1 1 3 6 7 7 8 9 11 11 10 10 10 10 9 8 6 4 2 1 1 1 0 0 0 1 1 1 1 2 2 2 1 0 0 0 0 0
0 0 0 0 0 0 0 0 0 0 1 2 3 3 4 6 7 8 10 11 10 8 7 6 6 7 6 5 3 2 1 0 0 0 0 0 0 0 0 1 1 2 2 1 0 0 0 0 0
0 0 0 0 0 0 0 0 0 0 1 2 3 3 4 6 7 7 8 9 9 8 5 3 3 3 4 2 1 1 0 0 0 0 0 0 0 0 0 0 0 1 1 0 0 0 0 0 0
0 0 0 0 0 0 0 0 0 0 1 2 3 3 4 5 6 6 5 7 9 8 5 3 2 1 1 1 1 1 1 0 0 0 0 0 0 0 0 0 0 0 0 0 0 0 0 0 0
Wind_Speed
1 2 2 2 5 5 1 3 2 1 0 0 2 4 5 3 3 2 1 8 11 11 9 12 14 13 13 13 13 13 13 13 13 13 13 12 12 12 11 12 11 11 11 12 13 13 12 12 12
2 2 2 4 6 3 3 3 2 2 2 2 3 4 3 1 1 4 4 7 11 11 9 10 14 13 13 13 13 13 13 13 12 12 12 12 12 11 11 11 11 11 11 11 12 12 12 12 11
2 1 4 5 4 3 3 2 2 1 1 1 2 2 2 2 3 5 5 11 10 9 7 9 14 13 13 12 12 12 12 12 12 12 12 11 11 11 10 11 11 11 10 10 11 11 11 11 10
2 4 5 5 0 4 4 3 1 1 1 1 2 2 2 1 3 5 10 12 11 8 7 8 14 13 13 12 12 12 12 12 11 11 11 11 10 10 10 10 10 10 10 10 10 10 10 10 9
4 5 5 3 3 4 4 3 1 0 0 1 3 2 1 3 6 10 12 12 11 8 6 7 12 12 13 12 12 12 11 11 11 10 10 10 9 9 9 9 9 9 9 9 9 9 8 9 8
5 5 4 1 4 4 3 2 1 1 0 1 3 3 0 2 6 9 10 9 9 8 6 6 12 12 12 12 11 11 11 10 10 9 9 9 9 9 8 8 8 8 8 8 8 8 8 8 8
5 4 3 2 3 4 2 1 2 2 1 2 3 4 1 2 4 8 8 8 7 7 6 5 6 8 11 11 10 10 10 10 9 9 9 9 8 8 8 7 7 8 8 8 8 8 7 7 8
5 5 1 1 2 4 2 1 0 2 2 1 4 5 4 4 7 9 8 7 6 5 5 4 4 4 4 6 10 10 10 10 9 8 9 9 8 8 8 7 7 7 7 7 7 7 6 6 7
4 5 1 4 4 4 1 1 1 0 2 2 2 2 3 11 11 10 7 5 5 5 4 4 4 4 4 4 6 7 8 8 8 6 8 7 3 3 4 6 7 7 7 7 7 6 6 6 6
4 3 5 4 4 2 1 0 1 2 2 1 2 4 9 13 12 11 10 9 7 7 6 5 5 4 4 4 3 2 3 3 3 2 3 3 2 2 3 5 7 7 7 7 7 6 5 4 3
4 5 4 4 4 2 1 0 1 4 2 4 4 7 12 12 10 10 9 8 8 7 6 6 5 5 5 3 3 2 2 2 2 3 3 3 2 1 1 1 2 2 4 3 4 3 2 3 3
2 4 4 3 2 1 2 2 1 4 6 5 6 10 13 12 11 11 10 8 6 6 6 5 6 5 4 3 3 3 2 2 2 3 3 3 2 2 1 1 1 2 2 3 3 2 3 3 3
3 4 3 3 3 2 1 2 2 4 3 3 6 9 12 12 10 7 7 6 6 6 6 5 5 5 5 4 3 4 3 3 3 3 3 4 3 2 2 1 2 2 2 3 3 3 3 3 3
3 3 4 3 2 1 1 2 1 4 1 4 7 9 10 11 10 7 6 6 7 7 6 5 5 4 4 4 3 3 3 3 3 3 4 4 3 3 3 2 2 2 2 2 3 3 3 2 2
1 3 5 3 1 1 2 3 4 4 3 5 6 7 8 7 8 9 9 8 8 7 5 6 6 5 5 4 4 3 3 3 3 3 4 4 4 4 3 3 2 2 2 3 3 3 3 2 2
2 2 3 5 1 1 3 6 6 2 4 4 5 6 6 6 7 7 7 6 6 5 5 5 5 5 5 4 3 3 3 3 3 3 3 4 4 4 4 3 2 2 3 3 3 3 3 2 2
3 1 3 6 2 1 2 6 5 2 4 5 5 6 6 5 4 5 6 6 6 6 5 5 5 5 5 4 3 3 3 3 3 3 3 3 4 5 4 3 3 3 3 3 3 2 2 2 2
3 2 3 5 3 0 2 6 5 2 4 5 4 5 5 6 6 5 5 5 5 5 5 5 4 4 4 3 2 2 2 1 2 2 3 4 4 5 4 3 3 4 3 3 3 3 3 2 2
3 2 5 7 3 1 4 5 6 3 2 3 4 5 5 5 4 4 4 4 4 4 4 4 4 4 4 3 3 3 3 2 2 2 3 4 4 5 5 4 4 4 3 4 4 3 3 2 1
3 3 5 6 3 1 3 5 4 2 3 4 5 5 5 4 3 4 4 5 5 5 5 4 4 4 4 3 2 2 2 1 1 1 2 3 5 5 5 5 4 4 4 4 4 4 3 2 2
4 5 6 5 4 2 1 5 4 3 1 1 1 2 4 5 6 5 5 5 5 6 6 5 5 4 3 3 3 3 2 2 1 1 1 2 4 5 4 5 5 4 4 4 4 4 4 3 1
5 6 6 4 1 3 0 3 6 3 4 3 3 1 2 3 4 4 5 6 6 6 5 4 5 4 4 4 4 5 4 2 2 2 2 2 3 4 4 5 5 5 4 4 4 3 3 4 3
6 2 2 2 2 1 1 2 7 3 4 5 4 3 3 4 5 5 6 6 5 4 4 4 3 3 3 4 5 5 3 2 1 2 3 2 2 3 4 5 5 4 4 4 4 4 3 3 3
3 3 4 4 4 1 4 3 6 3 4 5 4 2 3 3 3 4 4 4 3 3 3 4 4 4 4 4 5 5 5 4 4 3 3 2 2 2 3 4 4 4 4 4 4 4 4 3 3
4 5 3 4 3 5 2 3 7 4 3 3 3 3 2 2 3 3 3 4 4 4 4 3 4 3 3 4 4 5 5 5 5 4 4 3 2 2 3 4 4 4 4 4 4 4 4 4 4
4 8 7 5 5 4 1 4 5 2 3 3 2 1 1 1 2 3 3 4 4 4 4 4 4 4 4 4 4 4 4 3 2 3 3 3 3 3 4 4 4 4 5 5 4 3 3 3 3
5 3 5 6 2 1 3 4 4 3 5 5 4 3 2 1 1 1 2 2 3 3 4 4 4 4 4 4 4 4 3 3 3 2 2 2 2 2 3 4 4 4 4 4 5 3 3 3 3
4 7 5 5 4 3 3 2 3 3 4 4 3 3 3 1 1 0 1 2 1 1 2 3 3 3 3 3 3 3 3 3 4 3 3 2 2 2 3 4 4 4 4 4 4 3 3 3 3
3 3 4 4 4 5 3 5 3 3 2 2 3 2 2 2 1 1 1 2 2 1 2 2 2 3 2 3 2 3 3 3 3 3 3 3 3 3 3 3 4 5 4 4 4 3 4 4 3
3 4 6 4 3 3 3 5 2 1 1 1 2 3 2 2 2 2 2 2 2 1 2 2 2 2 3 3 3 3 3 2 3 3 2 3 3 3 3 3 4 5 4 4 4 4 4 4 4
Wind_Direction
125 106 109 73 54 47 343 277 247 301 308 199 126 121 130 144 171 190 135 139 136 142 150 153 152 148 143 138 132 128 126 125 125 127 126 124 124 124 123 121 119 118 117 117 114 114 113 113 112
125 131 66 59 76 55 295 272 267 246 180 131 85 97 93 99 103 121 135 148 142 145 148 153 154 150 146 141 136 134 132 130 128 129 130 129 129 129 128 126 124 122 121 119 117 115 114 114 113
154 101 79 70 94 172 250 267 247 326 159 147 94 81 116 150 143 157 162 145 137 141 146 155 154 152 148 145 142 139 137 135 133 133 134 133 133 132 132 131 130 128 126 121 117 117 115 115 117
92 49 54 67 218 224 229 259 233 343 16 63 107 72 65 51 152 151 138 140 137 140 144 157 156 154 151 150 147 145 143 141 140 138 137 135 134 134 134 134 134 132 128 126 124 122 120 122 126
61 73 57 29 279 261 250 264 216 172 293 112 115 108 26 16 96 124 136 142 143 140 142 157 158 156 154 153 152 149 148 147 145 144 141 138 137 137 136 136 136 134 131 130 128 125 124 128 130
58 66 78 304 285 285 273 248 149 114 51 108 125 124 69 89 118 134 137 137 139 141 143 154 161 159 158 157 155 153 152 151 150 149 147 144 141 140 139 139 138 135 133 132 130 127 125 126 128
104 98 145 215 282 304 286 186 135 153 180 199 147 125 154 137 138 132 127 124 128 136 142 150 159 162 162 160 158 158 157 154 155 156 154 150 149 146 146 145 142 141 137 135 133 131 130 126 125
121 104 120 233 240 274 290 20 157 154 214 135 126 148 197 181 136 119 110 113 125 137 147 153 153 150 155 161 164 163 163 160 161 160 159 158 158 156 153 150 148 146 144 142 139 137 134 127 125
92 80 208 222 206 250 291 39 354 80 97 80 119 165 171 134 131 122 118 122 143 156 160 158 153 148 147 155 169 168 168 167 165 165 165 156 140 141 153 155 154 152 154 151 145 140 131 122 120
96 142 229 221 203 214 306 123 173 77 58 39 46 69 117 136 143 144 150 159 169 177 177 166 163 162 156 166 156 149 157 156 147 139 145 133 124 144 153 161 159 160 159 154 144 133 118 101 93
151 196 232 250 230 206 194 279 158 140 223 211 187 151 144 148 152 158 166 172 178 176 177 177 174 167 165 158 147 144 139 138 139 142 134 128 122 128 123 119 138 141 139 122 117 101 92 98 102
184 246 232 263 239 198 196 180 167 192 226 205 176 155 155 161 168 174 176 178 171 167 180 177 175 173 170 157 156 155 156 159 160 155 146 141 141 141 136 130 122 112 113 114 105 103 100 104 112
214 263 260 251 260 226 189 199 195 257 256 142 141 147 162 169 176 180 173 168 165 173 181 179 173 174 171 162 167 164 173 174 166 165 165 161 160 162 151 146 138 132 125 125 124 122 121 115 113
233 249 288 289 268 258 187 267 182 259 170 135 151 163 172 175 176 169 165 173 179 184 185 180 173 173 164 167 170 171 174 171 167 172 177 175 167 160 155 152 147 150 148 139 135 137 129 115 115
270 315 326 311 285 245 124 305 236 232 149 152 167 170 173 178 172 177 181 183 187 186 177 176 175 173 170 171 175 170 171 165 173 178 179 178 169 162 155 158 160 161 146 134 125 118 109 111 114
30 24 323 303 317 277 135 252 260 191 156 175 179 176 176 182 184 186 183 182 179 170 168 176 178 171 171 174 171 159 161 172 181 178 180 182 171 161 153 156 160 147 134 128 127 122 113 110 109
30 357 287 303 306 101 158 249 269 195 176 196 194 186 180 181 190 192 184 179 176 170 167 170 171 170 171 166 162 151 159 179 178 169 177 184 170 161 152 154 148 134 126 129 139 120 121 117 108
242 266 281 280 293 351 238 255 277 256 198 205 200 191 185 190 201 189 176 171 166 160 162 164 162 163 157 145 132 125 133 165 157 162 169 167 165 159 149 146 145 138 131 128 125 122 105 111 120
191 223 267 270 274 260 253 263 276 267 204 211 209 202 200 202 194 164 159 158 146 145 155 164 159 163 154 152 154 156 169 177 164 171 161 158 158 157 153 152 147 146 147 152 140 126 116 96 98
203 251 273 289 298 231 268 283 280 251 219 214 211 211 207 193 176 164 163 160 166 167 169 169 168 169 167 165 155 140 147 162 169 167 153 159 158 160 165 156 155 155 146 143 141 132 125 116 122
228 219 237 254 325 354 324 315 311 302 324 321 233 204 199 192 190 183 176 176 175 178 182 178 175 168 158 143 124 109 94 86 101 134 160 171 160 160 165 163 157 156 155 161 162 155 147 148 135
250 232 223 234 261 284 107 283 294 300 321 316 297 248 201 198 190 189 182 182 187 188 181 179 171 165 157 148 150 152 153 158 182 175 175 168 162 159 162 160 159 161 162 163 169 157 147 144 153
222 220 197 209 187 273 318 197 285 331 309 292 286 257 222 197 187 188 188 187 188 178 170 169 158 155 157 158 157 151 150 159 155 141 142 146 162 165 163 160 159 162 164 165 161 154 150 147 155
185 72 54 55 84 242 243 180 278 275 263 293 299 266 228 204 186 188 184 170 160 152 154 156 157 166 166 165 164 165 166 163 155 159 162 162 164 167 165 166 163 164 163 166 167 162 162 163 156
116 96 30 358 8 250 244 170 247 266 279 285 289 277 252 203 178 178 170 163 156 157 161 162 164 170 172 170 173 182 178 170 171 171 173 168 169 176 183 168 168 169 169 167 161 161 169 174 171
172 146 160 200 222 267 305 225 251 282 316 332 336 324 342 195 190 188 181 172 168 171 172 169 177 178 174 174 177 178 178 167 167 165 167 177 186 187 179 175 172 171 167 164 161 166 177 173 180
146 175 168 140 163 239 270 276 300 356 3 8 11 16 6 315 210 190 173 157 170 181 182 180 180 178 179 178 171 168 169 162 159 157 162 175 181 173 173 171 166 167 164 162 163 172 180 174 184
135 144 105 126 161 235 272 261 263 313 329 339 356 353 343 0 13 78 139 149 163 192 184 166 171 180 179 171 176 173 171 170 161 160 170 176 180 173 173 169 163 166 163 162 163 170 178 177 192
96 99 110 126 157 165 227 265 231 220 258 285 295 312 327 351 352 159 157 160 152 135 155 168 166 157 155 160 160 151 154 159 158 164 177 171 159 158 161 161 171 167 168 167 164 175 178 189 201
136 152 145 153 203 175 177 257 298 208 282 309 311 328 355 19 34 60 84 87 90 110 136 148 162 161 167 159 151 149 144 149 157 166 169 161 155 154 161 165 178 174 174 173 174 182 184 198 208